Location: Skalnate Pleso
(49.1889°N, 20.2450°E)
Time: 23:12:43
(UTC+01:00)

Cosmos 1437 - Pass Details

Date: 19 November 2019
Orbit: 380 x 383 km, 81.2° (Epoch: 11 December)

Event Time Altitude Azimuth Distance (km) Brightness Sun altitude
Rises 05:05:19 0° 183° (S) 2,249 6.5 -17.6°
Reaches altitude 10° 05:07:18 10° 180° (S) 1,402 5.5 -17.3°
Maximum altitude 05:10:18 62° 99° (E) 437 3.0 -16.8°
Drops below altitude 10° 05:13:21 10° 18° (NNE) 1,419 5.5 -16.3°
Sets 05:15:22 0° 15° (NNE) 2,280 6.5 -16.0°
